SCP
0 0 0 0 0 0 0 0 0 0 0 0 0 0 0 0 0 0 0 0 0 0
0 0 0 0 0 0 0 0 0 0 0 0 0 0 0 0 0 0 0 0 0 0
0 0 0 0 0 0 0 0 0 0 0 0 0 0 0 0 0 0 0 0 0 0
0 0 0 0 0 0 0 0 0 0 0 0 0 0 0 0 0 0 0 0 0 0
0 0 0 0 0 0 0 0 0 0 0 0 0 0 0 0 0 0 0 0 0 0
0 0 0 0 0 0 0 0 0 0 0 0 0 0 0 0 0 0 0 0 0 0
0 0 0 0 0 0 0 0 0 0 0 0 0 0 0 0 0 0 0 0 0 0
0 0 0 0 0 0 0 0 0 0 0 0 0 0 0 0 0 0 0 0 0 0
0 0 0 0 0 0 0 0 0 0 0 0 0 0 0 0 0 0 0 0 0 0
0 0 0 0 0 0 0 0 0 0 0 0 0 0 0 0 0 0 0 0 0 0
0 0 0 0 0 0 0 0 0 0 0 0 0 0 0 0 0 0 0 0 0 0
0 0 0 0 0 0 0 0 0 0 0 0 0 0 0 0 0 0 0 0 0 0
0 0 0 0 0 0 0 0 0 0 0 0 0 0 0 0 0 0 0 0 0 0
0 0 0 0 0 0 0 0 0 0 0 0 0 0 0 0 0 0 0 0 0 0
Wind_Speed_500mb
18 18 23 25 25 31 33 32 32 32 30 32 34 36 35 31 26 24 22 26 28 24
16 16 21 21 23 27 29 31 31 30 32 33 35 40 36 28 29 28 21 20 23 21
17 16 18 22 21 24 28 29 27 29 32 31 36 42 42 33 27 30 27 23 24 22
17 17 17 20 20 23 27 28 25 28 29 32 37 40 42 39 36 29 30 29 29 30
13 18 17 18 19 21 25 26 22 23 24 29 36 41 44 44 41 36 33 34 32 29
12 15 20 16 17 18 21 24 20 20 17 24 27 33 37 40 41 36 31 32 34 33
15 15 16 16 15 17 19 20 21 19 21 21 19 28 30 32 34 38 39 34 32 32
15 15 16 15 13 18 20 20 21 22 21 21 19 23 27 29 29 33 32 30 29 31
13 13 11 15 15 15 18 21 22 23 23 21 21 23 24 27 29 27 28 28 23 24
13 12 11 13 14 14 19 23 25 25 25 24 23 26 27 26 24 25 25 25 23 21
13 11 13 19 14 13 18 25 26 28 31 29 27 27 27 27 24 25 26 26 25 25
11 11 16 15 16 13 21 25 29 34 34 32 31 27 30 33 30 27 25 26 30 31
12 4 6 11 6 14 22 26 27 35 36 32 34 29 29 33 36 33 29 25 27 31
15 13 11 15 21 28 33 34 30 34 36 32 33 31 27 28 34 34 34 33 30 29
Wind_Direction_500mb
359 359 359 0 7 6 10 14 16 14 14 9 7 8 8 7 7 11 10 16 8 8
1 358 4 8 6 6 12 13 17 19 18 18 20 17 11 13 18 17 14 16 7 355
5 1 5 7 5 7 9 12 21 26 29 32 30 30 31 30 29 27 31 23 13 7
16 6 2 1 4 8 11 14 23 29 36 38 36 35 33 36 35 33 36 30 23 21
9 16 3 357 0 6 11 14 21 29 38 40 40 39 35 34 37 39 40 38 30 22
328 352 355 350 358 3 8 12 14 21 25 28 31 32 31 30 29 25 15 9 8 10
304 328 352 357 359 2 3 6 8 6 10 9 18 15 14 19 21 16 17 19 20 29
312 315 339 352 355 0 3 3 4 3 3 6 5 5 9 13 11 11 14 25 30 35
324 323 351 5 359 2 8 8 3 1 359 358 0 3 3 4 2 7 14 21 24 24
326 335 318 336 344 356 358 356 356 355 347 342 350 348 350 349 354 359 360 6 8 8
314 323 321 312 317 350 352 335 341 333 326 333 330 330 330 334 336 337 342 341 347 350
297 314 324 313 294 312 319 337 345 338 326 321 326 316 317 316 317 322 326 328 333 334
272 273 326 343 315 300 308 322 330 337 331 327 324 321 301 304 306 308 310 315 323 327
273 269 279 291 293 296 300 306 313 321 328 325 321 323 317 300 301 306 306 310 315 321
Wind_Speed_850mb
18 18 23 25 25 31 33 32 32 32 30 32 34 36 35 31 26 24 22 26 28 24
16 16 21 21 23 27 29 31 31 30 32 33 35 40 36 28 29 28 21 20 23 21
17 16 18 22 21 24 28 29 27 29 32 31 36 42 42 33 27 30 27 23 24 22
17 17 17 20 20 23 27 28 25 28 29 32 37 40 42 39 36 29 30 29 29 30
13 18 17 18 19 21 25 26 22 23 24 29 36 41 44 44 41 36 33 34 32 29
12 15 20 16 17 18 21 24 20 20 17 24 27 33 37 40 41 36 31 32 34 33
15 15 16 16 15 17 19 20 21 19 21 21 19 28 30 32 34 38 39 34 32 32
15 15 16 15 13 18 20 20 21 22 21 21 19 23 27 29 29 33 32 30 29 31
13 13 11 15 15 15 18 21 22 23 23 21 21 23 24 27 29 27 28 28 23 24
13 12 11 13 14 14 19 23 25 25 25 24 23 26 27 26 24 25 25 25 23 21
13 11 13 19 14 13 18 25 26 28 31 29 27 27 27 27 24 25 26 26 25 25
11 11 16 15 16 13 21 25 29 34 34 32 31 27 30 33 30 27 25 26 30 31
12 4 6 11 6 14 22 26 27 35 36 32 34 29 29 33 36 33 29 25 27 31
15 13 11 15 21 28 33 34 30 34 36 32 33 31 27 28 34 34 34 33 30 29
Wind_Direction_850mb
359 359 359 0 7 6 10 14 16 14 14 9 7 8 8 7 7 11 10 16 8 8
1 358 4 8 6 6 12 13 17 19 18 18 20 17 11 13 18 17 14 16 7 355
5 1 5 7 5 7 9 12 21 26 29 32 30 30 31 30 29 27 31 23 13 7
16 6 2 1 4 8 11 14 23 29 36 38 36 35 33 36 35 33 36 30 23 21
9 16 3 357 0 6 11 14 21 29 38 40 40 39 35 34 37 39 40 38 30 22
328 352 355 350 358 3 8 12 14 21 25 28 31 32 31 30 29 25 15 9 8 10
304 328 352 357 359 2 3 6 8 6 10 9 18 15 14 19 21 16 17 19 20 29
312 315 339 352 355 0 3 3 4 3 3 6 5 5 9 13 11 11 14 25 30 35
324 323 351 5 359 2 8 8 3 1 359 358 0 3 3 4 2 7 14 21 24 24
326 335 318 336 344 356 358 356 356 355 347 342 350 348 350 349 354 359 360 6 8 8
314 323 321 312 317 350 352 335 341 333 326 333 330 330 330 334 336 337 342 341 347 350
297 314 324 313 294 312 319 337 345 338 326 321 326 316 317 316 317 322 326 328 333 334
272 273 326 343 315 300 308 322 330 337 331 327 324 321 301 304 306 308 310 315 323 327
273 269 279 291 293 296 300 306 313 321 328 325 321 323 317 300 301 306 306 310 315 321